Weather History for Ponca City, OK

Change the Weather History Date:

Thursday, August 29, 2013

  Actual Average Record
Temperature  
Mean Temperature 86 °F -  
Max Temperature 99 °F 88 °F 108 °F (1951)
Min Temperature 75 °F 66 °F 51 °F (1950)
Cooling Degree Days 21    
Growing Degree Days 36 (Base 50)    
Moisture  
Dew Point 65 °F    
Average Humidity 52    
Maximum Humidity 79    
Minimum Humidity 29    
Precipitation  
Precipitation 0.00 in - - ()
Sea Level Pressure  
Sea Level Pressure 29.96 in    
Wind  
Wind Speed 7 mph (South)    
Max Wind Speed 14 mph    
Max Gust Speed 18 mph    
Visibility 10 miles    
Events      
Averages and records for this station are not official NWS values.
T = Trace of Precipitation, MM = Missing Value Source: NWS Daily Summary

Daily Weather History Graph

Daily Weather History Graph

Search for Another Location

Airport:

Trip Planner

Search our weather history database for the weather conditions in past years. The results will help you decide how hot, cold, wet, or windy it might be!

Date:

Astronomy

Aug. 29, 2013 Rise Set
Actual Time 6:57 AM CDT 8:00 PM CDT
Civil Twilight 6:30 AM CDT 8:27 PM CDT
Nautical Twilight 5:59 AM CDT 8:58 PM CDT
Astronomical Twilight 5:26 AM CDT 9:31 PM CDT
Moon 12:54 AM CDT (8/29) 3:25 PM CDT (8/29)
Length of Visible Light 13h 56m
Length of Day
13h 03m
Last Quarter, 38% of the Moon is Illuminated
Aug 29
Last Quarter
Sep 5
New
Sep 12
First Quarter
Sep 19
Full
Sep 26
Last Quarter

Hourly Weather History & Observations

Time (CDT) Temp. Heat Index Dew Point Humidity Pressure Visibility Wind Dir Wind Speed Gust Speed Precip Events Conditions
12:53 AM 82.9 °F 85.8 °F 68.0 °F 60% 29.97 in 10.0 mi South 6.9 mph - N/A   Clear
1:53 AM 81.0 °F 83.8 °F 68.0 °F 65% 29.97 in 10.0 mi SSE 6.9 mph - N/A   Clear
2:53 AM 82.0 °F 84.9 °F 68.0 °F 62% 29.97 in 10.0 mi Variable 5.8 mph - N/A   Clear
3:53 AM 80.1 °F 82.7 °F 68.0 °F 67% 29.97 in 10.0 mi South 4.6 mph - N/A   Clear
4:53 AM 77.0 °F - 68.0 °F 74% 29.98 in 10.0 mi SSE 8.1 mph - N/A   Clear
5:53 AM 75.9 °F - 68.0 °F 76% 29.99 in 10.0 mi SSE 6.9 mph - N/A   Clear
6:53 AM 75.0 °F - 68.0 °F 79% 29.99 in 10.0 mi SSE 5.8 mph - N/A   Clear
7:53 AM 77.0 °F - 68.0 °F 74% 30.00 in 10.0 mi South 3.5 mph - N/A   Clear
8:53 AM 80.1 °F 82.3 °F 66.9 °F 64% 30.01 in 10.0 mi Calm Calm - N/A   Partly Cloudy
9:53 AM 84.9 °F 87.1 °F 66.0 °F 53% 30.01 in 10.0 mi SSW 6.9 mph - N/A   Scattered Clouds
10:53 AM 89.1 °F 91.0 °F 64.9 °F 45% 30.01 in 10.0 mi SSW 3.5 mph - N/A   Partly Cloudy
11:53 AM 93.0 °F 95.0 °F 64.9 °F 39% 30.00 in 10.0 mi South 4.6 mph - N/A   Clear
12:53 PM 96.1 °F 97.3 °F 63.0 °F 33% 29.98 in 10.0 mi Variable 6.9 mph - N/A   Clear
1:53 PM 97.0 °F 96.9 °F 60.1 °F 29% 29.96 in 10.0 mi SSW 10.4 mph - N/A   Clear
2:53 PM 97.0 °F 97.4 °F 61.0 °F 30% 29.95 in 10.0 mi South 8.1 mph 17.3 mph N/A   Partly Cloudy
3:53 PM 97.0 °F 99.3 °F 64.0 °F 34% 29.93 in 10.0 mi Variable 4.6 mph - N/A   Partly Cloudy
4:53 PM 97.0 °F 98.3 °F 63.0 °F 32% 29.92 in 10.0 mi SSE 13.8 mph 18.4 mph N/A   Clear
5:53 PM 96.1 °F 96.4 °F 61.0 °F 31% 29.92 in 10.0 mi South 9.2 mph - N/A   Clear
6:53 PM 93.0 °F 94.2 °F 63.0 °F 37% 29.93 in 10.0 mi South 9.2 mph - N/A   Clear
7:53 PM 90.0 °F 91.3 °F 64.0 °F 42% 29.93 in 10.0 mi SSE 8.1 mph - N/A   Clear
8:53 PM 86.0 °F 88.2 °F 66.0 °F 51% 29.93 in 10.0 mi SSE 9.2 mph - N/A   Clear
9:53 PM 84.0 °F 86.3 °F 66.0 °F 55% 29.94 in 10.0 mi SSE 8.1 mph - N/A   Clear
10:53 PM 84.0 °F 85.8 °F 64.9 °F 53% 29.93 in 10.0 mi SSE 8.1 mph - N/A   Clear
11:53 PM 82.9 °F 85.0 °F 66.0 °F 56% 29.93 in 10.0 mi SSE 8.1 mph - N/A   Clear